Address 0xd2279b05c7a47d85e6b67d15d624332057f38fa2 2

 
 
Txn Hash Method
Block
From
To
Value [Txn Fee]
0xb93b09ee6988cc9b804ffd78204c94d855c0aa9e14ec8b2d203835a493deb346Safe Transfer Fr...287444112022-05-25 7:52:094 days 3 hrs ago0xd2279b05c7a47d85e6b67d15d624332057f38fa2OUT OpenSea: OPENSTORE Token0 MATIC0.001653270001 30.000000033
0x8c2e4f38c04fbd843b863e3e2575b0a8a612df090cee1160a817bcc0aaac264cSafe Transfer Fr...287442202022-05-25 7:45:334 days 3 hrs ago0xd2279b05c7a47d85e6b67d15d624332057f38fa2OUT 0x3ff7d7a63f63cd6a30868eb580f55acb3b0de6d70 MATIC0.002720520009 30.000000103
0x0adc91f56638ee0b02249418e44d51d287d5400e62f322c837836728771a7bd6Safe Transfer Fr...287438282022-05-25 7:32:054 days 3 hrs ago0xd2279b05c7a47d85e6b67d15d624332057f38fa2OUT OpenSea: OPENSTORE Token0 MATIC0.001653270054 30.000000989
0x80ca250c5808a1a85603e6d36c50eae2f6dbf37fa484a3514242fb78188e0559Safe Transfer Fr...287436612022-05-25 7:26:194 days 3 hrs ago0xd2279b05c7a47d85e6b67d15d624332057f38fa2OUT 0x6194b6a6d6f7cb4d303e1a199dfc096d7bdf425b0 MATIC0.001609260191 30.000003574
0xf5741d1cc8bd999c1551c86c386a80d60c6027540e485238c64f4af83e40e8d2Safe Transfer Fr...287436512022-05-25 7:25:594 days 3 hrs ago0xd2279b05c7a47d85e6b67d15d624332057f38fa2OUT 0x6194b6a6d6f7cb4d303e1a199dfc096d7bdf425b0 MATIC0.001627553047 30.34102099
0x99ac93b84cb3760519535ad98a4fb410a8c33c062e8dadecfc0a8b03c9c39033Safe Transfer Fr...287436422022-05-25 7:25:414 days 3 hrs ago0xd2279b05c7a47d85e6b67d15d624332057f38fa2OUT 0x6194b6a6d6f7cb4d303e1a199dfc096d7bdf425b0 MATIC0.001609260172 30.000003223
0xceac7dfba5c027d7ed452e71394041fa98e63bc68ad24842b99b8fba2af446d9Safe Transfer Fr...287435942022-05-25 7:24:014 days 3 hrs ago0xd2279b05c7a47d85e6b67d15d624332057f38fa2OUT 0xfe063cf67b1f05f7eafe351e9a67a290f74dda9b0 MATIC0.002681132672 30.000029907
0xb68b1a95a65b21f1f5599510c6fad55b515a9401fca17ac6fd1681b48831479fSafe Transfer Fr...287435842022-05-25 7:23:414 days 3 hrs ago0xd2279b05c7a47d85e6b67d15d624332057f38fa2OUT 0x05bf200ce7c4d186fd01be606702f955b9b0940f0 MATIC0.001559851532 30.000029482
0xb4b2f1ee6a333d62b9b8ea9f35bd742cadf713034eed5358915f0b4355f557aaSafe Transfer Fr...287435722022-05-25 7:23:174 days 3 hrs ago0xd2279b05c7a47d85e6b67d15d624332057f38fa2OUT 0x12734e9d33fb2a1e42caa12af74c1c993db0d6c00 MATIC0.002720523212 30.00003543
0x7ce82ee8fdfd83cbf5b7cdc9be9ddbeaaf8c9257ed90934f7fa02aab9bfe9872Safe Transfer Fr...287435592022-05-25 7:22:514 days 3 hrs ago0xd2279b05c7a47d85e6b67d15d624332057f38fa2OUT OpenSea: OPENSTORE Token0 MATIC0.001653271976 30.000035871
0x2d1a3eb8d74d744c5ce33a294c28683fb60e470e98465e13dbaacf73c31ae9abSafe Transfer Fr...287435392022-05-25 7:22:074 days 3 hrs ago0xd2279b05c7a47d85e6b67d15d624332057f38fa2OUT 0x25f329de9469db7abe2137a56770b4b107de3b870 MATIC0.002718153955 30.000043661
0x9e4e0be6e9e6138d97ad92e4d4f2e9d9992d6af6664843e2028bcc122548c139Safe Transfer Fr...287435292022-05-25 7:21:474 days 3 hrs ago0xd2279b05c7a47d85e6b67d15d624332057f38fa2OUT 0xe0cfd5106ea314a7be84214f767ecd04b3661c1b0 MATIC0.002681494196 30.000046946
0x79eeabc871dfbd5bebcd58971e8755662be5a651b95fb5ff357591c00412a45dSafe Transfer Fr...287435022022-05-25 7:20:534 days 3 hrs ago0xd2279b05c7a47d85e6b67d15d624332057f38fa2OUT 0x5b7d5dffca6330639d8dc5dac79cfcf6d320dfeb0 MATIC0.002896899819 30.000101689
0x4309595e7fd10382b23026d7512f3321f6e3a4299f4d42e1491646f882f0f696Safe Transfer Fr...287434552022-05-25 7:19:154 days 3 hrs ago0xd2279b05c7a47d85e6b67d15d624332057f38fa2OUT 0x811fc6b1f13dc02ffea40005602299448257386d0 MATIC0.001301675294 30.00012202
0x9d39f66ec4f7c765c126fbc21ea6a1ca6992bea3f3cf24e86907ac8cd64338a7Transfer284891322022-05-19 1:08:4210 days 9 hrs ago0xd2279b05c7a47d85e6b67d15d624332057f38fa2OUT Wrapped Ether0 MATIC0.000904205274 30.070012456
0xfda55ad755e51be4bb4ce471f13b3ad3999e6673388c2927ab822d6702edfaaeSet Approval For...284617432022-05-18 8:29:5711 days 2 hrs ago0xd2279b05c7a47d85e6b67d15d624332057f38fa2OUT 0x6194b6a6d6f7cb4d303e1a199dfc096d7bdf425b0 MATIC0.001400074312 30.01166775
0x8e37916cf1600226463ec80bfa191102cbcb5ae8c37dc1693fa67db737bc51d9Safe Transfer Fr...284612232022-05-18 8:09:5711 days 2 hrs ago0xd2279b05c7a47d85e6b67d15d624332057f38fa2OUT 0x65d34db7e91fd93167bc87a62c0efe8699ce77df0 MATIC0.002724164357 30.038531212
0x4bacd705311ad276e3aaf9fb5507483792f18a4a65e9d5525dd2494c296c1d87Safe Transfer Fr...284611952022-05-18 8:09:0111 days 2 hrs ago0xd2279b05c7a47d85e6b67d15d624332057f38fa2OUT 0xd4308ee22f5071da36b9a15cdb6cdbc3e075038e0 MATIC0.002724675012 30.038531211
0x16b49ba1bd13f0929de0d12e5ce993140c8af905b5a552bc33cc68830f39007aSafe Transfer Fr...284611452022-05-18 8:07:1711 days 2 hrs ago0xd2279b05c7a47d85e6b67d15d624332057f38fa2OUT 0xce07a8667f720f180950ad153f33d8c99e48ec2e0 MATIC0.002684573573 30.038531216
0xc5fe4a11f4b7c4e18c908c375541a7551508aeee44487babfde080feeec11a98Safe Transfer Fr...284611362022-05-18 8:06:5911 days 2 hrs ago0xd2279b05c7a47d85e6b67d15d624332057f38fa2OUT 0xce07a8667f720f180950ad153f33d8c99e48ec2e0 MATIC0.002315460102 30.038531223
0xd484190896940479813e3a85a213619cf6553cbbfd44b62de84eb73a385aff46Safe Transfer Fr...284611272022-05-18 8:06:4111 days 2 hrs ago0xd2279b05c7a47d85e6b67d15d624332057f38fa2OUT 0xce07a8667f720f180950ad153f33d8c99e48ec2e0 MATIC0.002315460102 30.038531222
0x121c9410a40ea141aaf7396ee9dbaa64cc3ef9712e12fba971c570f0f565eac8Safe Transfer Fr...284611072022-05-18 8:05:5711 days 2 hrs ago0xd2279b05c7a47d85e6b67d15d624332057f38fa2OUT 0xd802b18701997314c71fbd947f1ad9eaaf1a41240 MATIC0.001566809789 30.038531235
0x48c45b67f875ff9a41e2f3e28b586698240e915882c2f3b9dad45244f771667bSafe Transfer Fr...284610882022-05-18 8:05:1911 days 2 hrs ago0xd2279b05c7a47d85e6b67d15d624332057f38fa2OUT 0x052bdfa78d122a976f8d0a1f0e33f580845be92b0 MATIC0.002684573577 30.038531264
0x83156a797285e1a16fd95b0ba71ef230a60a7cf3e71565f15909d72fa17ba893Safe Transfer Fr...284610792022-05-18 8:05:0111 days 2 hrs ago0xd2279b05c7a47d85e6b67d15d624332057f38fa2OUT 0xea6bfdc809820f88bbabb3b527c2eb7b5249f1dc0 MATIC0.001861637975 30.038531275
0x9e9974897f5d9ef83878b35a9de51fe64cfcde5ae9a449b77826aa1f17eba559Transfer281070142022-05-09 9:41:1920 days 1 hr ago0xd2279b05c7a47d85e6b67d15d624332057f38fa2OUT Wrapped Ether0 MATIC0.003231877484 107.478466389
[ Download CSV Export 
Latest 4 internal transactions
Parent Txn Hash Block From To Value
0xc993a5053bed5dda79a8957a55ee78acddee13e4a1c3e5a17727c895fb5d8d9d216644842021-11-22 8:32:54188 days 2 hrs ago SushiSwap: Router0xd2279b05c7a47d85e6b67d15d624332057f38fa22.529863389358447067 MATIC
0xea5220ad0b9a053720093118a3c25208aad1593d6bb669841c8e344c31522532216644702021-11-22 8:32:26188 days 2 hrs ago SushiSwap: Router0xd2279b05c7a47d85e6b67d15d624332057f38fa27.112032490155428146 MATIC
0x06cb46608a7848632533a5f133a2da95ce5f2792aa8125624df7a289eb319cf7208417922021-11-01 3:00:39209 days 7 hrs ago SushiSwap: Router0xd2279b05c7a47d85e6b67d15d624332057f38fa2131.134085740326994273 MATIC
0xbc49c84650a0babc7db73d35ac23b8e6b620adb9b3d9da71d2c7191d3b0435ca204291012021-10-20 22:05:15220 days 12 hrs ago SushiSwap: Router0xd2279b05c7a47d85e6b67d15d624332057f38fa2141.011559134174301723 MATIC
[ Download CSV Export 
Loading

Contract Name:
0 MATIC

Compiler Version
0

Optimization Enabled:
0 MATIC

Other Settings:
-NA-
Block Transaction Gas Used Reward
Age Block Fee Address BC Fee Address Voting Power Jailed Incoming
Block Uncle Number Difficulty Gas Used Reward
Loading
Loading
Make sure to use the "Vote Down" button for any spammy posts, and the "Vote Up" for interesting conversations.